Station Historical Data
Daily Summary for January 27, 2017 Units:  English    Metric   Both
« Previous Day
Next Day »
Daily Weekly Monthly Yearly Custom
  High: Low: Average:
Temperature: 49.4 °F 32.5 °F 39 °F
Dew Point: 36.3 °F 22.8 °F 30.3 °F
Humidity: 93 % 40 % 72 %
Wind Speed: 15.0 mph 0.0 mph 1.6 mph
Wind Gust: 21.0 mph - -
Wind:- - SSE
Pressure: 30.69 in 30.55 in -
Precipitation: 0.00 in    
Historical Graphs
 
 
Tabular Data for January 27, 2017
Time Temperature Dew Point Pressure Wind Wind Speed Wind Gust Humidity Rainfall Rate (Hourly) solar
00:00 32.5 °F 27.0 °F 30.57 in East 1.0 mph 1.0 mph 80 % 0.00 in 0.00 W/m2
00:05 32.5 °F 27.0 °F 30.57 in East 1.0 mph 2.0 mph 80 % 0.00 in 0.00 W/m2
00:10 32.5 °F 27.0 °F 30.57 in Calm   3.0 mph 80 % 0.00 in 0.00 W/m2
00:15 32.6 °F 27.1 °F 30.57 in East 1.0 mph 2.0 mph 80 % 0.00 in 0.00 W/m2
00:20 32.6 °F 26.8 °F 30.57 in ENE 1.0 mph 3.0 mph 79 % 0.00 in 0.00 W/m2
00:25 32.8 °F 27.0 °F 30.56 in ENE 1.0 mph 4.0 mph 79 % 0.00 in 0.00 W/m2
00:30 33.0 °F 26.9 °F 30.56 in East 4.0 mph 6.0 mph 78 % 0.00 in 0.00 W/m2
00:35 33.3 °F 27.2 °F 30.56 in ENE 7.0 mph 13.0 mph 78 % 0.00 in 0.00 W/m2
00:40 33.5 °F 27.4 °F 30.56 in ENE 4.0 mph 11.0 mph 78 % 0.00 in 0.00 W/m2
00:45 33.5 °F 26.8 °F 30.56 in ENE 3.0 mph 11.0 mph 76 % 0.00 in 0.00 W/m2
00:50 33.7 °F 27.0 °F 30.56 in ENE 1.0 mph 8.0 mph 76 % 0.00 in 0.00 W/m2
00:55 33.8 °F 27.0 °F 30.57 in NE 1.0 mph 3.0 mph 76 % 0.00 in 0.00 W/m2
01:00 33.9 °F 25.8 °F 30.57 in NE 1.0 mph 2.0 mph 72 % 0.00 in 0.00 W/m2
01:06 34.1 °F 27.3 °F 30.57 in ENE 1.0 mph 13.0 mph 76 % 0.00 in 0.00 W/m2
01:10 34.2 °F 27.4 °F 30.57 in ENE 11.0 mph 13.0 mph 76 % 0.00 in 0.00 W/m2
01:16 34.3 °F 27.2 °F 30.56 in East 12.0 mph 15.0 mph 75 % 0.00 in 0.00 W/m2
01:21 34.3 °F 27.2 °F 30.56 in ENE 10.0 mph 14.0 mph 75 % 0.00 in 0.00 W/m2
01:26 34.4 °F 27.0 °F 30.56 in East 8.0 mph 18.0 mph 74 % 0.00 in 0.00 W/m2
01:31 34.6 °F 27.2 °F 30.56 in East 5.0 mph 15.0 mph 74 % 0.00 in 0.00 W/m2
01:36 34.6 °F 27.5 °F 30.55 in East 6.0 mph 16.0 mph 75 % 0.00 in 0.00 W/m2
01:41 34.6 °F 27.5 °F 30.55 in East 11.0 mph 15.0 mph 75 % 0.00 in 0.00 W/m2
01:46 34.7 °F 27.3 °F 30.55 in East 1.0 mph 12.0 mph 74 % 0.00 in 0.00 W/m2
01:51 34.7 °F 27.9 °F 30.56 in East 12.0 mph 18.0 mph 76 % 0.00 in 0.00 W/m2
01:56 34.7 °F 27.0 °F 30.56 in ESE 7.0 mph 15.0 mph 73 % 0.00 in 0.00 W/m2
02:01 34.8 °F 28.0 °F 30.55 in East 15.0 mph 18.0 mph 76 % 0.00 in 0.00 W/m2
02:11 34.6 °F 27.8 °F 30.56 in East 6.0 mph 15.0 mph 76 % 0.00 in 0.00 W/m2
02:16 34.6 °F 27.5 °F 30.56 in ESE 7.0 mph 15.0 mph 75 % 0.00 in 0.00 W/m2
02:21 34.6 °F 27.2 °F 30.56 in ESE 6.0 mph 21.0 mph 74 % 0.00 in 0.00 W/m2
02:26 34.7 °F 27.3 °F 30.56 in Calm   13.0 mph 74 % 0.00 in 0.00 W/m2
02:31 34.7 °F 28.2 °F 30.55 in ENE 5.0 mph 12.0 mph 77 % 0.00 in 0.00 W/m2
02:36 34.7 °F 28.2 °F 30.56 in Calm   10.0 mph 77 % 0.00 in 0.00 W/m2
02:41 34.5 °F 27.7 °F 30.56 in Calm   5.0 mph 76 % 0.00 in 0.00 W/m2
02:46 34.4 °F 27.3 °F 30.56 in Calm   7.0 mph 75 % 0.00 in 0.00 W/m2
02:51 34.3 °F 27.5 °F 30.56 in Calm   10.0 mph 76 % 0.00 in 0.00 W/m2
02:56 34.1 °F 26.7 °F 30.56 in Calm   7.0 mph 74 % 0.00 in 0.00 W/m2
03:01 34.0 °F 26.9 °F 30.56 in Calm     75 % 0.00 in 0.00 W/m2
03:06 33.9 °F 26.8 °F 30.56 in Calm     75 % 0.00 in 0.00 W/m2
03:11 33.8 °F 26.7 °F 30.56 in Calm     75 % 0.00 in 0.00 W/m2
03:16 33.6 °F 26.5 °F 30.56 in ESE 7.0 mph 7.0 mph 75 % 0.00 in 0.00 W/m2
03:21 33.4 °F 27.0 °F 30.57 in East 5.0 mph 8.0 mph 77 % 0.00 in 0.00 W/m2
03:26 33.2 °F 27.1 °F 30.57 in East 6.0 mph 8.0 mph 78 % 0.00 in 0.00 W/m2
03:31 33.0 °F 26.6 °F 30.57 in ENE 5.0 mph 17.0 mph 77 % 0.00 in 0.00 W/m2
03:41 33.0 °F 26.3 °F 30.57 in ENE 10.0 mph 15.0 mph 76 % 0.00 in 0.00 W/m2
03:46 33.2 °F 26.8 °F 30.57 in ESE 5.0 mph 12.0 mph 77 % 0.00 in 0.00 W/m2
03:52 33.3 °F 26.2 °F 30.57 in East 8.0 mph 12.0 mph 75 % 0.00 in 0.00 W/m2
03:57 33.6 °F 26.5 °F 30.57 in ESE 11.0 mph 15.0 mph 75 % 0.00 in 0.00 W/m2
04:02 33.7 °F 27.0 °F 30.57 in East 2.0 mph 10.0 mph 76 % 0.00 in 0.00 W/m2
04:07 33.9 °F 26.2 °F 30.57 in East 6.0 mph 11.0 mph 73 % 0.00 in 0.00 W/m2
04:12 34.0 °F 25.9 °F 30.57 in East 7.0 mph 10.0 mph 72 % 0.00 in 0.00 W/m2
04:22 34.3 °F 26.9 °F 30.58 in East 8.0 mph 13.0 mph 74 % 0.00 in 0.00 W/m2
04:24 34.4 °F 26.3 °F 30.58 in Calm   13.0 mph 72 % 0.00 in 0.00 W/m2
04:29 34.4 °F 26.3 °F 30.58 in East 4.0 mph 11.0 mph 72 % 0.00 in 0.00 W/m2
04:34 34.5 °F 26.8 °F 30.59 in East 2.0 mph 14.0 mph 73 % 0.00 in 0.00 W/m2
04:39 34.5 °F 26.4 °F 30.59 in East 2.0 mph 12.0 mph 72 % 0.00 in 0.00 W/m2
04:44 34.6 °F 26.5 °F 30.59 in ESE 9.0 mph 16.0 mph 72 % 0.00 in 0.00 W/m2
04:49 34.6 °F 26.2 °F 30.59 in East 5.0 mph 12.0 mph 71 % 0.00 in 0.00 W/m2
04:54 34.6 °F 26.2 °F 30.59 in ESE 5.0 mph 12.0 mph 71 % 0.00 in 0.00 W/m2
04:59 34.6 °F 26.2 °F 30.59 in ESE 12.0 mph 12.0 mph 71 % 0.00 in 0.00 W/m2
05:04 34.6 °F 26.2 °F 30.59 in ESE 4.0 mph 11.0 mph 71 % 0.00 in 0.00 W/m2
05:09 34.7 °F 26.3 °F 30.59 in East 4.0 mph 12.0 mph 71 % 0.00 in 0.00 W/m2
05:14 34.7 °F 26.3 °F 30.59 in SE 8.0 mph 13.0 mph 71 % 0.00 in 0.00 W/m2
05:19 34.7 °F 26.3 °F 30.60 in ESE 9.0 mph 9.0 mph 71 % 0.00 in 0.00 W/m2
05:24 34.7 °F 26.6 °F 30.60 in ESE 2.0 mph 9.0 mph 72 % 0.00 in 0.00 W/m2
05:29 34.7 °F 25.9 °F 30.60 in East 6.0 mph 9.0 mph 70 % 0.00 in 0.00 W/m2
05:34 34.7 °F 26.6 °F 30.60 in ESE 1.0 mph 9.0 mph 72 % 0.00 in 0.00 W/m2
05:39 34.7 °F 26.6 °F 30.60 in ESE 8.0 mph 9.0 mph 72 % 0.00 in 0.00 W/m2
05:44 34.6 °F 26.5 °F 30.60 in ESE 6.0 mph 9.0 mph 72 % 0.00 in 0.00 W/m2
05:49 34.6 °F 26.9 °F 30.60 in ESE 2.0 mph 7.0 mph 73 % 0.00 in 0.00 W/m2
05:59 34.5 °F 26.1 °F 30.59 in Calm   11.0 mph 71 % 0.00 in 0.00 W/m2
06:04 34.4 °F 26.3 °F 30.59 in Calm   12.0 mph 72 % 0.00 in 0.00 W/m2
06:09 34.4 °F 26.3 °F 30.59 in Calm   13.0 mph 72 % 0.00 in 0.00 W/m2
06:14 34.4 °F 26.0 °F 30.60 in Calm   14.0 mph 71 % 0.00 in 0.00 W/m2
06:19 34.4 °F 26.7 °F 30.60 in ESE 11.0 mph 12.0 mph 73 % 0.00 in 0.00 W/m2
06:24 34.4 °F 26.0 °F 30.60 in ESE 5.0 mph 11.0 mph 71 % 0.00 in 0.00 W/m2
06:29 34.4 °F 25.6 °F 30.60 in Calm   9.0 mph 70 % 0.00 in 0.00 W/m2
06:34 34.4 °F 25.3 °F 30.60 in ESE 7.0 mph 11.0 mph 69 % 0.00 in 0.00 W/m2
06:39 34.5 °F 25.4 °F 30.61 in ESE 4.0 mph 9.0 mph 69 % 0.00 in 0.00 W/m2
06:44 34.5 °F 26.4 °F 30.61 in ESE 2.0 mph 8.0 mph 72 % 0.00 in 0.00 W/m2
06:49 34.5 °F 26.1 °F 30.61 in Calm   1.0 mph 71 % 0.00 in 0.00 W/m2
06:54 34.5 °F 26.4 °F 30.61 in Calm   1.0 mph 72 % 0.00 in 0.00 W/m2
06:59 34.4 °F 26.0 °F 30.61 in Calm   1.0 mph 71 % 0.00 in 0.00 W/m2
07:04 34.3 °F 25.9 °F 30.61 in ESE 4.0 mph 6.0 mph 71 % 0.00 in 7.00 W/m2
07:10 34.1 °F 25.4 °F 30.61 in Calm   8.0 mph 70 % 0.00 in 9.00 W/m2
07:15 34.0 °F 25.9 °F 30.61 in ESE 5.0 mph 8.0 mph 72 % 0.00 in 11.00 W/m2
07:20 33.8 °F 25.7 °F 30.61 in Calm   8.0 mph 72 % 0.00 in 16.00 W/m2
07:25 33.6 °F 25.5 °F 30.61 in ESE 9.0 mph 9.0 mph 72 % 0.00 in 19.00 W/m2
07:30 33.4 °F 25.7 °F 30.61 in Calm   9.0 mph 73 % 0.00 in 23.00 W/m2
07:35 33.4 °F 25.7 °F 30.61 in East 1.0 mph 1.0 mph 73 % 0.00 in 32.00 W/m2
07:40 33.4 °F 25.7 °F 30.61 in ESE 4.0 mph 8.0 mph 73 % 0.00 in 44.00 W/m2
07:45 33.4 °F 25.7 °F 30.61 in Calm   12.0 mph 73 % 0.00 in 60.00 W/m2
07:50 33.4 °F 25.7 °F 30.61 in Calm   8.0 mph 73 % 0.00 in 81.00 W/m2
07:55 33.5 °F 25.5 °F 30.61 in Calm   1.0 mph 72 % 0.00 in 100.00 W/m2
08:00 33.7 °F 23.9 °F 30.61 in Calm     67 % 0.00 in 125.00 W/m2
08:05 34.2 °F 25.1 °F 30.61 in Calm     69 % 0.00 in 132.00 W/m2
08:10 34.4 °F 26.0 °F 30.62 in Calm   1.0 mph 71 % 0.00 in 148.00 W/m2
08:15 34.6 °F 26.5 °F 30.62 in Calm     72 % 0.00 in 190.00 W/m2
08:20 34.7 °F 26.6 °F 30.62 in Calm     72 % 0.00 in 199.00 W/m2
08:25 34.8 °F 26.4 °F 30.62 in Calm     71 % 0.00 in 218.00 W/m2
08:30 34.9 °F 26.5 °F 30.62 in Calm     71 % 0.00 in 246.00 W/m2
08:40 35.2 °F 26.4 °F 30.62 in Calm     70 % 0.00 in 200.00 W/m2
08:45 35.5 °F 26.7 °F 30.62 in Calm     70 % 0.00 in 202.00 W/m2
08:50 35.8 °F 26.3 °F 30.62 in Calm   1.0 mph 68 % 0.00 in 327.00 W/m2
08:55 36.2 °F 27.0 °F 30.62 in NNW 1.0 mph 2.0 mph 69 % 0.00 in 353.00 W/m2
09:00 36.8 °F 25.0 °F 30.62 in Calm   3.0 mph 62 % 0.00 in 353.00 W/m2
09:05 37.7 °F 24.3 °F 30.62 in North 1.0 mph 4.0 mph 58 % 0.00 in 304.00 W/m2
09:10 38.6 °F 25.5 °F 30.62 in Calm   7.0 mph 59 % 0.00 in 401.00 W/m2
09:15 39.1 °F 24.3 °F 30.62 in Calm   7.0 mph 55 % 0.00 in 329.00 W/m2
09:20 39.6 °F 23.9 °F 30.62 in Calm   10.0 mph 53 % 0.00 in 352.00 W/m2
09:25 39.8 °F 26.7 °F 30.62 in North 2.0 mph 3.0 mph 59 % 0.00 in 229.00 W/m2
09:30 39.9 °F 25.1 °F 30.62 in NNE 1.0 mph 3.0 mph 55 % 0.00 in 417.00 W/m2
09:35 40.0 °F 26.4 °F 30.62 in Calm   3.0 mph 58 % 0.00 in 374.00 W/m2
09:41 40.1 °F 26.9 °F 30.62 in Calm   7.0 mph 59 % 0.00 in 417.00 W/m2
09:46 40.3 °F 24.1 °F 30.62 in North 2.0 mph 7.0 mph 52 % 0.00 in 406.00 W/m2
09:51 40.7 °F 25.8 °F 30.62 in NNW 1.0 mph 3.0 mph 55 % 0.00 in 246.00 W/m2
09:56 41.1 °F 27.9 °F 30.63 in Calm   2.0 mph 59 % 0.00 in 448.00 W/m2
10:01 41.1 °F 27.5 °F 30.63 in North 1.0 mph 7.0 mph 58 % 0.00 in 475.00 W/m2
10:06 41.3 °F 25.0 °F 30.63 in NNW 5.0 mph 9.0 mph 52 % 0.00 in 399.00 W/m2
10:11 41.7 °F 26.7 °F 30.63 in Calm   7.0 mph 55 % 0.00 in 538.00 W/m2
10:16 42.0 °F 28.7 °F 30.63 in NNW 7.0 mph 10.0 mph 59 % 0.00 in 501.00 W/m2
10:21 42.1 °F 28.0 °F 30.62 in NNW 2.0 mph 9.0 mph 57 % 0.00 in 427.00 W/m2
10:26 42.2 °F 28.1 °F 30.62 in Calm   7.0 mph 57 % 0.00 in 315.00 W/m2
10:31 42.4 °F 27.0 °F 30.62 in Calm   3.0 mph 54 % 0.00 in 559.00 W/m2
10:36 42.6 °F 30.5 °F 30.62 in NW 1.0 mph 8.0 mph 62 % 0.00 in 575.00 W/m2
10:41 42.9 °F 29.6 °F 30.62 in NNW 8.0 mph 9.0 mph 59 % 0.00 in 564.00 W/m2
10:46 43.2 °F 26.8 °F 30.62 in NNW 7.0 mph 8.0 mph 52 % 0.00 in 566.00 W/m2
10:51 43.6 °F 26.2 °F 30.63 in Calm   7.0 mph 50 % 0.00 in 563.00 W/m2
10:56 44.0 °F 26.1 °F 30.62 in Calm   3.0 mph 49 % 0.00 in 566.00 W/m2
11:01 44.3 °F 26.4 °F 30.63 in NW 1.0 mph 1.0 mph 49 % 0.00 in 568.00 W/m2
11:06 44.5 °F 26.0 °F 30.63 in Calm   4.0 mph 48 % 0.00 in 573.00 W/m2
11:11 44.7 °F 26.2 °F 30.63 in NW 1.0 mph 2.0 mph 48 % 0.00 in 577.00 W/m2
11:16 45.0 °F 28.5 °F 30.63 in NNW 1.0 mph 1.0 mph 52 % 0.00 in 584.00 W/m2
11:21 45.3 °F 25.8 °F 30.63 in NW 2.0 mph 4.0 mph 46 % 0.00 in 585.00 W/m2
11:26 45.7 °F 22.8 °F 30.63 in North 1.0 mph 5.0 mph 40 % 0.00 in 589.00 W/m2
11:31 46.2 °F 27.1 °F 30.62 in Calm   1.0 mph 47 % 0.00 in 594.00 W/m2
11:36 46.3 °F 27.2 °F 30.63 in Calm   1.0 mph 47 % 0.00 in 594.00 W/m2
11:41 46.2 °F 28.1 °F 30.62 in Calm     49 % 0.00 in 598.00 W/m2
11:46 46.1 °F 29.0 °F 30.62 in NW 1.0 mph 1.0 mph 51 % 0.00 in 598.00 W/m2
11:51 46.0 °F 27.4 °F 30.62 in Calm     48 % 0.00 in 601.00 W/m2
11:56 46.1 °F 30.4 °F 30.62 in Calm     54 % 0.00 in 603.00 W/m2
12:01 46.0 °F 30.8 °F 30.62 in NW 1.0 mph 1.0 mph 55 % 0.00 in 603.00 W/m2
12:06 46.0 °F 29.8 °F 30.61 in Calm   1.0 mph 53 % 0.00 in 603.00 W/m2
12:11 46.1 °F 29.0 °F 30.61 in NW 1.0 mph 1.0 mph 51 % 0.00 in 605.00 W/m2
12:16 46.3 °F 29.2 °F 30.61 in Calm   1.0 mph 51 % 0.00 in 605.00 W/m2
12:21 46.7 °F 30.5 °F 30.61 in NW 1.0 mph 1.0 mph 53 % 0.00 in 603.00 W/m2
12:26 46.8 °F 30.6 °F 30.61 in Calm   1.0 mph 53 % 0.00 in 601.00 W/m2
12:31 47.0 °F 29.8 °F 30.60 in Calm   1.0 mph 51 % 0.00 in 601.00 W/m2
12:36 47.2 °F 31.0 °F 30.60 in Calm     53 % 0.00 in 598.00 W/m2
12:41 47.3 °F 31.0 °F 30.60 in Calm     53 % 0.00 in 596.00 W/m2
12:46 47.4 °F 31.1 °F 30.60 in Calm     53 % 0.00 in 594.00 W/m2
12:51 47.6 °F 29.9 °F 30.60 in Calm     50 % 0.00 in 589.00 W/m2
12:56 47.8 °F 31.0 °F 30.60 in Calm     52 % 0.00 in 587.00 W/m2
13:01 47.9 °F 31.6 °F 30.59 in Calm   1.0 mph 53 % 0.00 in 584.00 W/m2
13:06 47.9 °F 30.7 °F 30.59 in Calm     51 % 0.00 in 578.00 W/m2
13:11 48.2 °F 30.9 °F 30.59 in Calm     51 % 0.00 in 573.00 W/m2
13:16 48.4 °F 32.5 °F 30.59 in Calm     54 % 0.00 in 568.00 W/m2
13:21 48.6 °F 32.7 °F 30.59 in NW 1.0 mph 1.0 mph 54 % 0.00 in 563.00 W/m2
13:27 48.6 °F 31.8 °F 30.58 in Calm   1.0 mph 52 % 0.00 in 559.00 W/m2
13:32 48.6 °F 32.7 °F 30.58 in WNW 1.0 mph 1.0 mph 54 % 0.00 in 550.00 W/m2
13:37 48.6 °F 33.6 °F 30.58 in Calm     56 % 0.00 in 543.00 W/m2
13:42 48.6 °F 32.3 °F 30.58 in WNW 1.0 mph 1.0 mph 53 % 0.00 in 536.00 W/m2
13:47 48.7 °F 32.8 °F 30.58 in Calm     54 % 0.00 in 529.00 W/m2
13:52 48.9 °F 32.5 °F 30.58 in Calm     53 % 0.00 in 520.00 W/m2
13:57 49.0 °F 33.1 °F 30.58 in Calm     54 % 0.00 in 513.00 W/m2
14:02 49.2 °F 33.3 °F 30.58 in Calm     54 % 0.00 in 503.00 W/m2
14:07 49.4 °F 33.5 °F 30.58 in Calm     54 % 0.00 in 492.00 W/m2
14:12 49.4 °F 33.0 °F 30.58 in Calm   1.0 mph 53 % 0.00 in 485.00 W/m2
14:17 49.4 °F 33.9 °F 30.58 in Calm     55 % 0.00 in 475.00 W/m2
14:22 49.4 °F 34.4 °F 30.58 in Calm     56 % 0.00 in 462.00 W/m2
14:27 49.4 °F 35.3 °F 30.58 in Calm   2.0 mph 58 % 0.00 in 454.00 W/m2
14:32 49.2 °F 35.1 °F 30.58 in Calm     58 % 0.00 in 443.00 W/m2
14:37 49.0 °F 35.7 °F 30.58 in Calm   1.0 mph 60 % 0.00 in 431.00 W/m2
14:42 48.8 °F 35.1 °F 30.58 in Calm     59 % 0.00 in 420.00 W/m2
14:49 48.8 °F 34.3 °F 30.58 in Calm   1.0 mph 57 % 0.00 in 406.00 W/m2
14:54 48.7 °F 35.0 °F 30.58 in Calm     59 % 0.00 in 390.00 W/m2
14:57 48.7 °F 35.0 °F 30.59 in Calm   1.0 mph 59 % 0.00 in 383.00 W/m2
14:59 48.6 °F 34.9 °F 30.59 in WNW 1.0 mph 1.0 mph 59 % 0.00 in 376.00 W/m2
15:02 48.6 °F 34.1 °F 30.59 in Calm     57 % 0.00 in 371.00 W/m2
15:07 48.5 °F 34.8 °F 30.59 in Calm   1.0 mph 59 % 0.00 in 357.00 W/m2
15:12 48.4 °F 35.6 °F 30.60 in Calm   1.0 mph 61 % 0.00 in 345.00 W/m2
15:17 48.3 °F 35.1 °F 30.60 in WSW 7.0 mph 7.0 mph 60 % 0.00 in 330.00 W/m2
15:22 48.3 °F 35.5 °F 30.61 in SW 7.0 mph 8.0 mph 61 % 0.00 in 315.00 W/m2
15:27 48.2 °F 35.8 °F 30.61 in Calm   1.0 mph 62 % 0.00 in 301.00 W/m2
15:32 47.9 °F 36.3 °F 30.61 in Calm   1.0 mph 64 % 0.00 in 288.00 W/m2
15:37 47.6 °F 36.0 °F 30.61 in SSW 5.0 mph 7.0 mph 64 % 0.00 in 272.00 W/m2
15:42 47.4 °F 35.8 °F 30.62 in West 4.0 mph 7.0 mph 64 % 0.00 in 258.00 W/m2
15:47 47.1 °F 35.6 °F 30.62 in SW 6.0 mph 6.0 mph 64 % 0.00 in 243.00 W/m2
15:52 46.9 °F 35.8 °F 30.62 in Calm   8.0 mph 65 % 0.00 in 221.00 W/m2
15:57 46.7 °F 35.6 °F 30.62 in Calm   5.0 mph 65 % 0.00 in 204.00 W/m2
16:02 46.4 °F 35.7 °F 30.62 in Calm   1.0 mph 66 % 0.00 in 183.00 W/m2
16:07 46.1 °F 35.4 °F 30.63 in SSW 5.0 mph 6.0 mph 66 % 0.00 in 165.00 W/m2
16:12 45.8 °F 35.8 °F 30.63 in Calm   1.0 mph 68 % 0.00 in 149.00 W/m2
16:17 45.6 °F 35.7 °F 30.63 in Calm   1.0 mph 68 % 0.00 in 127.00 W/m2
16:22 45.4 °F 35.5 °F 30.64 in Calm   1.0 mph 68 % 0.00 in 113.00 W/m2
16:27 45.1 °F 35.2 °F 30.64 in Calm     68 % 0.00 in 93.00 W/m2
16:32 44.9 °F 35.4 °F 30.64 in Calm     69 % 0.00 in 77.00 W/m2
16:37 44.7 °F 35.5 °F 30.64 in Calm     70 % 0.00 in 62.00 W/m2
16:42 44.5 °F 36.0 °F 30.64 in Calm     72 % 0.00 in 47.00 W/m2
16:47 44.3 °F 35.9 °F 30.64 in Calm     72 % 0.00 in 37.00 W/m2
16:52 44.1 °F 35.7 °F 30.65 in Calm     72 % 0.00 in 28.00 W/m2
16:57 43.8 °F 35.4 °F 30.65 in Calm     72 % 0.00 in 19.00 W/m2
17:02 43.7 °F 36.0 °F 30.65 in Calm     74 % 0.00 in 16.00 W/m2
17:12 43.1 °F 35.4 °F 30.65 in Calm     74 % 0.00 in 11.00 W/m2
17:17 42.9 °F 35.5 °F 30.65 in Calm     75 % 0.00 in 7.00 W/m2
17:22 42.5 °F 35.5 °F 30.65 in Calm     76 % 0.00 in 5.00 W/m2
17:27 42.3 °F 35.3 °F 30.66 in Calm     76 % 0.00 in 0.00 W/m2
17:32 42.0 °F 35.0 °F 30.66 in Calm     76 % 0.00 in 0.00 W/m2
17:42 41.4 °F 35.1 °F 30.67 in Calm     78 % 0.00 in 0.00 W/m2
17:47 41.1 °F 35.1 °F 30.67 in Calm     79 % 0.00 in 0.00 W/m2
17:52 40.5 °F 34.8 °F 30.67 in Calm     80 % 0.00 in 0.00 W/m2
17:57 40.2 °F 34.5 °F 30.67 in Calm     80 % 0.00 in 0.00 W/m2
18:02 39.8 °F 34.5 °F 30.68 in Calm     81 % 0.00 in 0.00 W/m2
18:08 39.5 °F 34.8 °F 30.68 in Calm     83 % 0.00 in 0.00 W/m2
18:13 39.1 °F 34.7 °F 30.68 in Calm     84 % 0.00 in 0.00 W/m2
18:18 38.8 °F 34.4 °F 30.68 in Calm     84 % 0.00 in 0.00 W/m2
18:23 38.5 °F 34.4 °F 30.69 in Calm     85 % 0.00 in 0.00 W/m2
18:28 38.3 °F 34.5 °F 30.68 in Calm     86 % 0.00 in 0.00 W/m2
18:33 38.0 °F 34.5 °F 30.69 in Calm     87 % 0.00 in 0.00 W/m2
18:38 37.7 °F 34.2 °F 30.68 in Calm     87 % 0.00 in 0.00 W/m2
18:43 37.4 °F 34.2 °F 30.68 in Calm     88 % 0.00 in 0.00 W/m2
18:48 37.3 °F 34.4 °F 30.68 in Calm     89 % 0.00 in 0.00 W/m2
18:53 37.1 °F 34.2 °F 30.68 in Calm     89 % 0.00 in 0.00 W/m2
18:58 37.0 °F 34.3 °F 30.68 in Calm     90 % 0.00 in 0.00 W/m2
19:03 36.9 °F 34.2 °F 30.68 in Calm     90 % 0.00 in 0.00 W/m2
19:08 36.8 °F 34.2 °F 30.68 in Calm     90 % 0.00 in 0.00 W/m2
19:17 36.8 °F 34.4 °F 30.68 in Calm     91 % 0.00 in 0.00 W/m2
19:22 36.8 °F 34.4 °F 30.68 in Calm     91 % 0.00 in 0.00 W/m2
19:27 36.8 °F 34.4 °F 30.68 in Calm     91 % 0.00 in 0.00 W/m2
19:28 36.9 °F 34.5 °F 30.68 in Calm     91 % 0.00 in 0.00 W/m2
19:33 36.9 °F 34.5 °F 30.68 in Calm     91 % 0.00 in 0.00 W/m2
19:38 36.9 °F 34.5 °F 30.68 in Calm     91 % 0.00 in 0.00 W/m2
19:43 36.9 °F 34.8 °F 30.68 in Calm     92 % 0.00 in 0.00 W/m2
19:48 36.9 °F 34.8 °F 30.68 in Calm     92 % 0.00 in 0.00 W/m2
19:53 36.9 °F 34.8 °F 30.68 in Calm     92 % 0.00 in 0.00 W/m2
19:58 36.8 °F 34.7 °F 30.67 in Calm     92 % 0.00 in 0.00 W/m2
20:03 36.8 °F 34.7 °F 30.67 in Calm     92 % 0.00 in 0.00 W/m2
20:08 36.7 °F 34.6 °F 30.67 in Calm     92 % 0.00 in 0.00 W/m2
20:13 36.7 °F 34.6 °F 30.68 in Calm     92 % 0.00 in 0.00 W/m2
20:18 36.7 °F 34.6 °F 30.68 in Calm     92 % 0.00 in 0.00 W/m2
20:23 36.7 °F 34.6 °F 30.68 in Calm     92 % 0.00 in 0.00 W/m2
20:28 36.7 °F 34.9 °F 30.68 in Calm     93 % 0.00 in 0.00 W/m2
20:38 36.8 °F 35.0 °F 30.69 in Calm     93 % 0.00 in 0.00 W/m2
20:43 36.8 °F 35.0 °F 30.68 in Calm     93 % 0.00 in 0.00 W/m2
20:48 36.8 °F 35.0 °F 30.69 in Calm     93 % 0.00 in 0.00 W/m2
20:53 36.8 °F 35.0 °F 30.68 in Calm     93 % 0.00 in 0.00 W/m2
20:58 36.8 °F 35.0 °F 30.68 in Calm     93 % 0.00 in 0.00 W/m2
21:03 36.7 °F 34.9 °F 30.68 in Calm     93 % 0.00 in 0.00 W/m2
21:08 36.7 °F 34.9 °F 30.68 in Calm     93 % 0.00 in 0.00 W/m2
21:13 36.7 °F 34.9 °F 30.69 in Calm     93 % 0.00 in 0.00 W/m2
21:18 36.6 °F 34.8 °F 30.68 in Calm     93 % 0.00 in 0.00 W/m2
21:23 36.6 °F 34.8 °F 30.68 in Calm     93 % 0.00 in 0.00 W/m2
21:28 36.5 °F 34.7 °F 30.68 in Calm     93 % 0.00 in 0.00 W/m2
21:33 36.5 °F 34.7 °F 30.68 in Calm     93 % 0.00 in 0.00 W/m2
21:38 36.4 °F 34.6 °F 30.68 in Calm     93 % 0.00 in 0.00 W/m2
21:43 36.3 °F 34.5 °F 30.68 in Calm     93 % 0.00 in 0.00 W/m2
21:48 36.3 °F 34.5 °F 30.68 in Calm     93 % 0.00 in 0.00 W/m2
21:53 36.2 °F 34.1 °F 30.68 in Calm     92 % 0.00 in 0.00 W/m2
21:58 36.1 °F 34.0 °F 30.68 in Calm     92 % 0.00 in 0.00 W/m2
22:03 36.1 °F 34.0 °F 30.68 in Calm     92 % 0.00 in 0.00 W/m2
22:08 36.0 °F 33.9 °F 30.68 in Calm     92 % 0.00 in 0.00 W/m2
22:18 35.9 °F 33.8 °F 30.68 in Calm     92 % 0.00 in 0.00 W/m2
22:23 35.8 °F 33.4 °F 30.69 in Calm     91 % 0.00 in 0.00 W/m2
22:28 35.8 °F 33.7 °F 30.69 in Calm     92 % 0.00 in 0.00 W/m2
22:33 35.7 °F 33.6 °F 30.69 in Calm     92 % 0.00 in 0.00 W/m2
22:38 35.7 °F 33.6 °F 30.69 in Calm     92 % 0.00 in 0.00 W/m2
22:44 35.5 °F 33.1 °F 30.68 in Calm     91 % 0.00 in 0.00 W/m2
22:49 35.3 °F 32.9 °F 30.68 in Calm     91 % 0.00 in 0.00 W/m2
22:54 35.2 °F 33.1 °F 30.68 in Calm     92 % 0.00 in 0.00 W/m2
22:59 35.2 °F 33.1 °F 30.68 in Calm     92 % 0.00 in 0.00 W/m2
23:04 35.1 °F 33.0 °F 30.68 in Calm     92 % 0.00 in 0.00 W/m2
23:09 35.0 °F 32.9 °F 30.68 in Calm     92 % 0.00 in 0.00 W/m2
23:14 34.9 °F 32.8 °F 30.68 in Calm     92 % 0.00 in 0.00 W/m2
23:19 34.9 °F 32.8 °F 30.68 in Calm     92 % 0.00 in 0.00 W/m2
23:24 34.9 °F 32.8 °F 30.68 in Calm     92 % 0.00 in 0.00 W/m2
23:34 34.9 °F 32.8 °F 30.67 in Calm     92 % 0.00 in 0.00 W/m2
23:39 34.8 °F 32.7 °F 30.67 in Calm     92 % 0.00 in 0.00 W/m2
23:44 34.8 °F 32.7 °F 30.67 in Calm     92 % 0.00 in 0.00 W/m2
23:49 34.7 °F 32.6 °F 30.67 in Calm     92 % 0.00 in 0.00 W/m2
23:54 34.7 °F 32.6 °F 30.67 in Calm     92 % 0.00 in 0.00 W/m2
23:59 34.8 °F 32.7 °F 30.67 in Calm     92 % 0.00 in 0.00 W/m2
Juneau County Weather
Compliments of Weather Underground - 4.5 mb
 WU-history PHP script courtesy of   Juneau County Weather.
powered by Cumulus v1.9.3 (1059)
Ambient Weather VWS v14.00
Top Contact Website Map Copyright © 2007 - 2018 Foresthillweather.com Never base important decisions on this or any weather information obtained from the Internet